When you browse on this site, cookies collect data to enhance your experience and personalize the content and advertising you see.
Visit our Privacy Policy to learn more. By continuing to use the site, you agree to this use of cookies and data.
  • In Denmark
  • List of Countries
  • For 7 days
  • Water Temperature
  • Satellite Maps
  • Weather Map
  • Weather Widgets
  • user-avatar
    Login

    Hourly Weather Tuzhilovo

    Today, 17 January, Thursday

    Time Temperature Precipitation Wind Pressure Humidity
    00:00 -9°C° 0 mm 4 mps 728 mmHg 91%
    01:00 -9°C° 0 mm 4 mps 728 mmHg 90%
    02:00 -9°C° 0 mm 4 mps 728 mmHg 89%
    03:00 -9°C° 0 mm 4 mps 729 mmHg 89%
    04:00 -10°C° 0 mm 4 mps 729 mmHg 88%
    05:00 -10°C° 0 mm 4 mps 729 mmHg 88%
    06:00 -11°C° 0 mm 4 mps 729 mmHg 89%
    07:00 -12°C° 0 mm 3 mps 728 mmHg 91%
    08:00 -13°C° 0 mm 3 mps 728 mmHg 92%
    09:00 -12°C° 0.1 mm 4 mps 728 mmHg 92%
    10:00 -13°C° 0.1 mm 5 mps 727 mmHg 92%
    11:00 -12°C° 0.1 mm 5 mps 726 mmHg 92%
    12:00 -11°C° 0.4 mm 6 mps 726 mmHg 92%
    13:00 -10°C° 0.4 mm 6 mps 725 mmHg 91%
    14:00 -9°C° 0.4 mm 6 mps 724 mmHg 91%
    15:00 -8°C° 0.4 mm 6 mps 724 mmHg 90%
    16:00 -6°C° 0.4 mm 7 mps 723 mmHg 90%
    17:00 -4°C° 0.4 mm 7 mps 722 mmHg 89%
    18:00 -4°C° 0.4 mm 7 mps 722 mmHg 89%
    19:00 -3°C° 0.4 mm 7 mps 721 mmHg 89%
    20:00 -4°C° 0.4 mm 8 mps 720 mmHg 89%
    21:00 -3°C° 0.6 mm 7 mps 720 mmHg 88%
    22:00 -2°C° 0.6 mm 7 mps 719 mmHg 88%
    23:00 -2°C° 0.6 mm 7 mps 719 mmHg 88%

    Tomorrow, 18 January, Friday

    Time Temperature Precipitation Wind Pressure Humidity
    00:00 -2°C° 0.4 mm 7 mps 719 mmHg 87%
    01:00 -2°C° 0.4 mm 7 mps 720 mmHg 87%
    02:00 -2°C° 0.4 mm 6 mps 720 mmHg 87%
    03:00 -3°C° 0.1 mm 6 mps 721 mmHg 87%
    04:00 -3°C° 0.1 mm 6 mps 722 mmHg 86%
    05:00 -4°C° 0.1 mm 6 mps 723 mmHg 85%
    06:00 -5°C° 0 mm 5 mps 724 mmHg 85%
    07:00 -6°C° 0 mm 5 mps 725 mmHg 86%
    08:00 -7°C° 0 mm 5 mps 725 mmHg 86%
    09:00 -8°C° 0 mm 5 mps 726 mmHg 86%
    10:00 -8°C° 0 mm 5 mps 727 mmHg 86%
    11:00 -9°C° 0 mm 4 mps 727 mmHg 86%
    12:00 -9°C° 0 mm 4 mps 728 mmHg 87%
    13:00 -9°C° 0 mm 3 mps 728 mmHg 88%
    14:00 -9°C° 0 mm 3 mps 729 mmHg 89%
    15:00 -10°C° 0 mm 2 mps 729 mmHg 91%
    16:00 -12°C° 0 mm 2 mps 730 mmHg 93%
    17:00 -11°C° 0 mm 1 mps 730 mmHg 94%
    18:00 -11°C° 0 mm 1 mps 730 mmHg 94%
    19:00 -11°C° 0 mm 1 mps 729 mmHg 94%
    20:00 -11°C° 0 mm 1 mps 729 mmHg 94%
    21:00 -11°C° 0.3 mm 1 mps 729 mmHg 95%
    22:00 -11°C° 0.3 mm 1 mps 729 mmHg 96%
    23:00 -10°C° 0.3 mm 1 mps 729 mmHg 97%

    Day after tomorrow, 19 January, Saturday

    Time Temperature Precipitation Wind Pressure Humidity
    00:00 -10°C° 0.2 mm 1 mps 729 mmHg 96%
    01:00 -12°C° 0.2 mm 2 mps 729 mmHg 96%
    02:00 -12°C° 0.2 mm 2 mps 729 mmHg 95%
    03:00 -13°C° 0 mm 2 mps 730 mmHg 95%
    04:00 -14°C° 0 mm 2 mps 730 mmHg 96%
    05:00 -16°C° 0 mm 3 mps 731 mmHg 96%
    06:00 -15°C° 0.1 mm 3 mps 731 mmHg 95%
    07:00 -15°C° 0.1 mm 3 mps 732 mmHg 93%
    08:00 -14°C° 0.1 mm 3 mps 732 mmHg 92%
    09:00 -15°C° 0 mm 4 mps 733 mmHg 91%
    10:00 -14°C° 0 mm 4 mps 733 mmHg 90%
    11:00 -14°C° 0 mm 4 mps 733 mmHg 89%
    12:00 -14°C° 0 mm 4 mps 734 mmHg 90%
    13:00 -12°C° 0 mm 3 mps 734 mmHg 90%
    14:00 -12°C° 0 mm 3 mps 734 mmHg 90%
    15:00 -10°C° 0.1 mm 2 mps 735 mmHg 92%
    16:00 -10°C° 0.1 mm 2 mps 735 mmHg 94%
    17:00 -9°C° 0.1 mm 1 mps 735 mmHg 97%
    18:00 -9°C° 0.1 mm 1 mps 735 mmHg 97%
    19:00 -9°C° 0.1 mm 1 mps 735 mmHg 97%
    20:00 -9°C° 0.1 mm 1 mps 735 mmHg 97%
    21:00 -9°C° 0.1 mm 1 mps 735 mmHg 97%
    22:00 -12°C° 0.1 mm 2 mps 736 mmHg 97%
    23:00 -12°C° 0.1 mm 2 mps 736 mmHg 97%

    20 January, Sunday

    Time Temperature Precipitation Wind Pressure Humidity
    00:00 -12°C° 0 mm 2 mps 736 mmHg 96%
    01:00 -13°C° 0 mm 2 mps 736 mmHg 96%
    02:00 -13°C° 0 mm 2 mps 737 mmHg 96%
    03:00 -13°C° 0 mm 2 mps 737 mmHg 96%
    04:00 -13°C° 0 mm 2 mps 737 mmHg 97%
    05:00 -13°C° 0 mm 2 mps 737 mmHg 97%
    06:00 -13°C° 0 mm 2 mps 737 mmHg 97%
    07:00 -12°C° 0 mm 2 mps 737 mmHg 97%
    08:00 -12°C° 0 mm 2 mps 737 mmHg 97%
    09:00 -12°C° 0.1 mm 3 mps 737 mmHg 95%
    10:00 -9°C° 0.1 mm 3 mps 737 mmHg 94%
    11:00 -9°C° 0.1 mm 4 mps 737 mmHg 92%
    12:00 -9°C° 0.2 mm 4 mps 737 mmHg 92%
    13:00 -9°C° 0.2 mm 4 mps 737 mmHg 91%
    14:00 -9°C° 0.2 mm 4 mps 737 mmHg 90%
    15:00 -9°C° 0.1 mm 4 mps 737 mmHg 91%
    16:00 -8°C° 0.1 mm 3 mps 737 mmHg 92%
    17:00 -9°C° 0.1 mm 3 mps 737 mmHg 93%
    18:00 -9°C° 0 mm 3 mps 737 mmHg 93%
    19:00 -10°C° 0 mm 3 mps 737 mmHg 94%
    20:00 -10°C° 0 mm 3 mps 737 mmHg 94%
    21:00 -12°C° 0 mm 3 mps 737 mmHg 95%
    22:00 -12°C° 0 mm 3 mps 737 mmHg 95%
    23:00 -13°C° 0 mm 3 mps 737 mmHg 96%

    21 January, Monday

    Time Temperature Precipitation Wind Pressure Humidity
    00:00 -12°C° 0 mm 2 mps 738 mmHg 97%
    01:00 -13°C° 0 mm 2 mps 738 mmHg 97%
    02:00 -14°C° 0 mm 2 mps 738 mmHg 98%
    03:00 -14°C° 0 mm 2 mps 738 mmHg 98%
    04:00 -14°C° 0 mm 2 mps 737 mmHg 98%
    05:00 -14°C° 0 mm 2 mps 737 mmHg 98%
    06:00 -14°C° 0 mm 2 mps 737 mmHg 98%
    07:00 -12°C° 0 mm 1 mps 737 mmHg 98%
    08:00 -12°C° 0 mm 1 mps 737 mmHg 97%
    09:00 -11°C° 0.1 mm 1 mps 736 mmHg 97%
    10:00 -11°C° 0.1 mm 1 mps 736 mmHg 97%
    11:00 -10°C° 0.1 mm 1 mps 736 mmHg 96%
    12:00 -10°C° 0.2 mm 1 mps 736 mmHg 96%
    13:00 -9°C° 0.2 mm 1 mps 736 mmHg 96%
    14:00 -10°C° 0.2 mm 2 mps 736 mmHg 96%
    15:00 -10°C° 0.2 mm 2 mps 736 mmHg 96%
    16:00 -12°C° 0.2 mm 2 mps 737 mmHg 96%
    17:00 -13°C° 0.2 mm 3 mps 737 mmHg 96%
    18:00 -14°C° 0.1 mm 3 mps 737 mmHg 95%
    19:00 -14°C° 0.1 mm 3 mps 737 mmHg 95%
    20:00 -15°C° 0.1 mm 3 mps 737 mmHg 95%
    21:00 -17°C° 0 mm 3 mps 737 mmHg 96%
    22:00 -19°C° 0 mm 3 mps 737 mmHg 97%
    23:00 -21°C° 0 mm 3 mps 738 mmHg 97%

    22 January, Tuesday

    Time Temperature Precipitation Wind Pressure Humidity
    00:00 -20°C° 0 mm 2 mps 738 mmHg 98%
    01:00 -21°C° 0 mm 2 mps 738 mmHg 99%
    02:00 -23°C° 0 mm 2 mps 738 mmHg 99%
    03:00 -20°C° 0 mm 1 mps 738 mmHg 99%
    04:00 -21°C° 0 mm 1 mps 738 mmHg 99%
    05:00 -21°C° 0 mm 1 mps 738 mmHg 99%
    06:00 -21°C° 0 mm 1 mps 738 mmHg 99%
    07:00 -21°C° 0 mm 1 mps 738 mmHg 99%
    08:00 -21°C° 0 mm 1 mps 738 mmHg 99%
    09:00 -20°C° 0 mm 1 mps 738 mmHg 98%
    10:00 -19°C° 0 mm 1 mps 739 mmHg 97%
    11:00 -18°C° 0 mm 1 mps 739 mmHg 96%
    12:00 -18°C° 0 mm 1 mps 739 mmHg 96%
    13:00 -17°C° 0 mm 1 mps 739 mmHg 96%
    14:00 -17°C° 0 mm 1 mps 739 mmHg 96%
    15:00 -17°C° 0 mm 1 mps 740 mmHg 97%
    16:00 -18°C° 0 mm 1 mps 740 mmHg 97%
    17:00 -18°C° 0 mm 1 mps 740 mmHg 98%
    18:00 -18°C° 0 mm 1 mps 740 mmHg 98%
    19:00 -19°C° 0 mm 1 mps 740 mmHg 98%
    20:00 -19°C° 0 mm 1 mps 740 mmHg 98%
    21:00 -19°C° 0 mm 1 mps 740 mmHg 98%
    22:00 -19°C° 0 mm 1 mps 741 mmHg 98%
    23:00 -20°C° 0 mm 1 mps 741 mmHg 98%
    Show more